SHT23A EGLL-EGJB

Flight info

Callsign SHT23A
Flight time 0h 43m
Altitude 23000
Route GASGU2J GASGU N866 SAM/N0394F220 N63 LELNA LELNA1V
Aircraft A319/M-SDE3FGHIRWY/LB1

Departure

Time 2026-04-20 15:09
Airport London Heathrow Airport (EGLL)

Arrival

Time 2026-04-20 15:52
Airport Guernsey Airport (EGJB)
Time Latitude Longitude Altitude Speed Heading
2026-04-20 14:50 51.47361 -0.48588 85 ft 0 kts 269°
2026-04-20 14:58 51.47361 -0.48572 88 ft 3 kts 269°
2026-04-20 14:59 51.47361 -0.48542 87 ft 3 kts 269°
2026-04-20 14:59 51.47361 -0.48527 88 ft 3 kts 269°
2026-04-20 14:59 51.47361 -0.48507 88 ft 3 kts 262°
2026-04-20 14:59 51.47370 -0.48484 88 ft 3 kts 179°
2026-04-20 15:00 51.47373 -0.48484 85 ft 0 kts 176°
2026-04-20 15:02 51.47368 -0.48484 85 ft 2 kts 175°
2026-04-20 15:02 51.47330 -0.48478 85 ft 9 kts 177°
2026-04-20 15:03 51.47253 -0.48476 85 ft 14 kts 179°
2026-04-20 15:03 51.47149 -0.48475 85 ft 14 kts 180°
2026-04-20 15:03 51.47041 -0.48472 85 ft 15 kts 179°
2026-04-20 15:03 51.46926 -0.48472 85 ft 18 kts 179°
2026-04-20 15:04 51.46798 -0.48472 86 ft 19 kts 179°
2026-04-20 15:04 51.46681 -0.48473 86 ft 13 kts 195°
2026-04-20 15:04 51.46652 -0.48590 88 ft 13 kts 270°
2026-04-20 15:04 51.46646 -0.48740 87 ft 10 kts 244°
2026-04-20 15:05 51.46589 -0.48775 85 ft 0 kts 194°
2026-04-20 15:07 51.46577 -0.48780 84 ft 6 kts 194°
2026-04-20 15:07 51.46525 -0.48786 85 ft 8 kts 169°
2026-04-20 15:07 51.46478 -0.48728 88 ft 9 kts 124°
2026-04-20 15:08 51.46472 -0.48637 86 ft 9 kts 82°
2026-04-20 15:08 51.46477 -0.48572 86 ft 2 kts 89°
2026-04-20 15:08 51.46479 -0.48305 88 ft 54 kts 90°
2026-04-20 15:08 51.46483 -0.47373 83 ft 112 kts 89°
2026-04-20 15:09 51.46487 -0.45854 233 ft 148 kts 90°
2026-04-20 15:09 51.46488 -0.44200 841 ft 151 kts 89°
2026-04-20 15:09 51.46484 -0.42468 1464 ft 159 kts 88°
2026-04-20 15:09 51.46141 -0.40663 1876 ft 188 kts 120°
2026-04-20 15:10 51.45315 -0.38833 2370 ft 215 kts 121°
2026-04-20 15:10 51.44406 -0.36760 2988 ft 239 kts 122°
2026-04-20 15:10 51.43441 -0.34760 3778 ft 254 kts 133°
2026-04-20 15:10 51.41908 -0.33206 4849 ft 265 kts 158°
2026-04-20 15:11 51.41197 -0.32892 5260 ft 269 kts 167°
2026-04-20 15:11 51.39744 -0.32822 5731 ft 279 kts 187°
2026-04-20 15:11 51.37968 -0.34003 6670 ft 286 kts 215°
2026-04-20 15:11 51.36463 -0.36094 7745 ft 286 kts 223°
2026-04-20 15:12 51.34988 -0.38250 8810 ft 288 kts 223°
2026-04-20 15:12 51.33502 -0.40417 9870 ft 290 kts 223°
2026-04-20 15:12 51.32001 -0.42643 10576 ft 304 kts 228°
2026-04-20 15:12 51.30933 -0.45626 10888 ft 321 kts 259°
2026-04-20 15:13 51.30959 -0.49200 11410 ft 327 kts 288°
2026-04-20 15:13 51.32106 -0.52319 12168 ft 331 kts 316°
2026-04-20 15:13 51.34075 -0.54183 13060 ft 334 kts 343°
2026-04-20 15:13 51.36399 -0.54346 13898 ft 342 kts
2026-04-20 15:14 51.38579 -0.52771 14628 ft 352 kts 34°
2026-04-20 15:14 51.40234 -0.49833 15346 ft 363 kts 58°
2026-04-20 15:14 51.40978 -0.45926 16043 ft 376 kts 83°
2026-04-20 15:14 51.40612 -0.41736 16702 ft 388 kts 109°
2026-04-20 15:15 51.39162 -0.38058 17348 ft 396 kts 135°
2026-04-20 15:15 51.36885 -0.35607 17966 ft 399 kts 161°
2026-04-20 15:15 51.34179 -0.34827 18588 ft 396 kts 187°
2026-04-20 15:15 51.31554 -0.35853 19121 ft 386 kts 213°
2026-04-20 15:16 51.29510 -0.38443 19731 ft 371 kts 238°
2026-04-20 15:16 51.28412 -0.42042 20393 ft 355 kts 263°
2026-04-20 15:16 51.28427 -0.45894 21012 ft 346 kts 285°
2026-04-20 15:16 51.29038 -0.49596 21202 ft 344 kts 284°
2026-04-20 15:17 51.29115 -0.53392 21250 ft 350 kts 270°
2026-04-20 15:17 51.28700 -0.57246 21248 ft 354 kts 261°
2026-04-20 15:17 51.27984 -0.61027 21252 ft 357 kts 257°
2026-04-20 15:17 51.27125 -0.64756 21244 ft 358 kts 255°
2026-04-20 15:18 51.26243 -0.68467 21262 ft 359 kts 255°
2026-04-20 15:18 51.25390 -0.72226 21795 ft 360 kts 257°
2026-04-20 15:18 51.24579 -0.76021 22436 ft 361 kts 258°
2026-04-20 15:18 51.23807 -0.79827 23040 ft 361 kts 258°
2026-04-20 15:19 51.23054 -0.83648 23217 ft 360 kts 259°
2026-04-20 15:19 51.22317 -0.87449 23247 ft 358 kts 259°
2026-04-20 15:19 51.21581 -0.91251 23247 ft 358 kts 258°
2026-04-20 15:19 51.20588 -0.94930 23247 ft 367 kts 248°
2026-04-20 15:20 51.19108 -0.98303 23246 ft 377 kts 237°
2026-04-20 15:20 51.17244 -1.01294 23248 ft 381 kts 232°
2026-04-20 15:20 51.15330 -1.04229 23248 ft 381 kts 232°
2026-04-20 15:20 51.13417 -1.07156 23249 ft 382 kts 232°
2026-04-20 15:21 51.11506 -1.10084 23249 ft 381 kts 232°
2026-04-20 15:21 51.09594 -1.13020 23251 ft 381 kts 232°
2026-04-20 15:21 51.07684 -1.15949 23250 ft 381 kts 232°
2026-04-20 15:21 51.05772 -1.18875 23249 ft 381 kts 232°
2026-04-20 15:22 51.03857 -1.21801 23248 ft 381 kts 232°
2026-04-20 15:22 51.01943 -1.24726 23248 ft 381 kts 232°
2026-04-20 15:22 51.00029 -1.27644 23247 ft 381 kts 232°
2026-04-20 15:22 50.98137 -1.30524 23247 ft 381 kts 232°
2026-04-20 15:23 50.96183 -1.33387 23242 ft 386 kts 227°
2026-04-20 15:23 50.93933 -1.35786 23236 ft 396 kts 217°
2026-04-20 15:23 50.91461 -1.37769 23242 ft 398 kts 214°
2026-04-20 15:23 50.88983 -1.39730 23242 ft 398 kts 214°
2026-04-20 15:24 50.86508 -1.41693 23200 ft 398 kts 214°
2026-04-20 15:24 50.84038 -1.43661 23217 ft 397 kts 214°
2026-04-20 15:24 50.81568 -1.45631 23220 ft 397 kts 214°
2026-04-20 15:24 50.79105 -1.47597 23227 ft 397 kts 214°
2026-04-20 15:25 50.76640 -1.49561 23241 ft 397 kts 214°
2026-04-20 15:25 50.74178 -1.51518 23244 ft 397 kts 214°
2026-04-20 15:25 50.71712 -1.53474 23244 ft 396 kts 214°
2026-04-20 15:25 50.69245 -1.55427 23246 ft 396 kts 214°
2026-04-20 15:26 50.66780 -1.57377 23247 ft 396 kts 214°
2026-04-20 15:26 50.64307 -1.59329 23247 ft 396 kts 214°
2026-04-20 15:26 50.61836 -1.61275 23221 ft 396 kts 213°
2026-04-20 15:26 50.59366 -1.63217 23226 ft 396 kts 213°
2026-04-20 15:27 50.56932 -1.65127 23228 ft 396 kts 213°
2026-04-20 15:27 50.54465 -1.67061 23233 ft 396 kts 213°
2026-04-20 15:27 50.51999 -1.68997 23237 ft 396 kts 213°
2026-04-20 15:27 50.49537 -1.70930 23238 ft 396 kts 213°
2026-04-20 15:28 50.47075 -1.72861 23244 ft 396 kts 213°
2026-04-20 15:28 50.44608 -1.74795 23244 ft 396 kts 213°
2026-04-20 15:28 50.42139 -1.76724 23245 ft 396 kts 213°
2026-04-20 15:28 50.39677 -1.78644 23215 ft 396 kts 213°
2026-04-20 15:29 50.37210 -1.80566 23220 ft 396 kts 213°
2026-04-20 15:29 50.34745 -1.82491 23225 ft 396 kts 213°
2026-04-20 15:29 50.32279 -1.84417 23212 ft 396 kts 213°
2026-04-20 15:29 50.29812 -1.86338 23221 ft 396 kts 213°
2026-04-20 15:30 50.27347 -1.88245 23226 ft 396 kts 213°
2026-04-20 15:30 50.24877 -1.90151 23229 ft 396 kts 213°
2026-04-20 15:30 50.22410 -1.92057 23232 ft 396 kts 213°
2026-04-20 15:30 50.19941 -1.93963 23234 ft 396 kts 213°
2026-04-20 15:31 50.17473 -1.95870 23213 ft 396 kts 213°
2026-04-20 15:31 50.15013 -1.97771 23223 ft 395 kts 213°
2026-04-20 15:31 50.12548 -1.99670 23230 ft 395 kts 213°
2026-04-20 15:31 50.10113 -2.01539 23232 ft 394 kts 213°
2026-04-20 15:32 50.07654 -2.03427 23241 ft 394 kts 213°
2026-04-20 15:32 50.05195 -2.05316 23242 ft 394 kts 213°
2026-04-20 15:32 50.02739 -2.07201 23235 ft 394 kts 213°
2026-04-20 15:32 50.00287 -2.09107 23231 ft 392 kts 215°
2026-04-20 15:33 49.98052 -2.11438 23226 ft 384 kts 226°
2026-04-20 15:33 49.96157 -2.14274 23057 ft 373 kts 234°
2026-04-20 15:33 49.94438 -2.17271 22386 ft 370 kts 234°
2026-04-20 15:33 49.92732 -2.20260 21716 ft 369 kts 234°
2026-04-20 15:34 49.91035 -2.23237 21063 ft 368 kts 233°
2026-04-20 15:34 49.89342 -2.26207 20421 ft 367 kts 233°
2026-04-20 15:34 49.87650 -2.29165 19789 ft 366 kts 232°
2026-04-20 15:34 49.85960 -2.32115 19180 ft 365 kts 232°
2026-04-20 15:35 49.84274 -2.35050 18582 ft 364 kts 232°
2026-04-20 15:35 49.82587 -2.37977 17908 ft 363 kts 231°
2026-04-20 15:35 49.80912 -2.40875 17238 ft 360 kts 231°
2026-04-20 15:35 49.79250 -2.43753 16567 ft 356 kts 231°
2026-04-20 15:36 49.77604 -2.46602 15933 ft 353 kts 232°
2026-04-20 15:36 49.75975 -2.49416 15310 ft 350 kts 232°
2026-04-20 15:36 49.74352 -2.52219 14694 ft 348 kts 230°
2026-04-20 15:36 49.72734 -2.54970 14085 ft 346 kts 229°
2026-04-20 15:37 49.70839 -2.57256 13412 ft 346 kts 212°
2026-04-20 15:37 49.68640 -2.58750 12747 ft 346 kts 198°
2026-04-20 15:37 49.66280 -2.59359 12079 ft 344 kts 184°
2026-04-20 15:37 49.63901 -2.59463 11439 ft 337 kts 183°
2026-04-20 15:38 49.61604 -2.59741 10812 ft 327 kts 184°
2026-04-20 15:38 49.59361 -2.59826 10199 ft 319 kts 181°
2026-04-20 15:38 49.57169 -2.59891 9607 ft 310 kts 181°
2026-04-20 15:38 49.55054 -2.59966 9103 ft 300 kts 181°
2026-04-20 15:39 49.53023 -2.60049 8613 ft 291 kts 181°
2026-04-20 15:39 49.51026 -2.60194 8124 ft 284 kts 186°
2026-04-20 15:39 49.49083 -2.60509 7643 ft 278 kts 184°
2026-04-20 15:39 49.47175 -2.60820 7167 ft 273 kts 189°
2026-04-20 15:40 49.45405 -2.61781 6662 ft 270 kts 211°
2026-04-20 15:40 49.44103 -2.63768 6378 ft 259 kts 238°
2026-04-20 15:40 49.43498 -2.66279 6189 ft 248 kts 262°
2026-04-20 15:40 49.43385 -2.68901 6011 ft 246 kts 266°
2026-04-20 15:41 49.43289 -2.71533 5833 ft 247 kts 266°
2026-04-20 15:41 49.43188 -2.74182 5651 ft 250 kts 266°
2026-04-20 15:41 49.43084 -2.76826 5478 ft 244 kts 266°
2026-04-20 15:41 49.43040 -2.79374 5324 ft 234 kts 275°
2026-04-20 15:42 49.43356 -2.81770 5187 ft 227 kts 290°
2026-04-20 15:42 49.44052 -2.83973 5040 ft 232 kts 305°
2026-04-20 15:42 49.45055 -2.85832 4880 ft 221 kts 317°
2026-04-20 15:42 49.46093 -2.87508 4723 ft 212 kts 316°
2026-04-20 15:43 49.47088 -2.89126 4561 ft 204 kts 317°
2026-04-20 15:43 49.48039 -2.90749 4416 ft 208 kts 309°
2026-04-20 15:43 49.48592 -2.92880 4252 ft 234 kts 280°
2026-04-20 15:43 49.48673 -2.95386 4538 ft 237 kts 272°
2026-04-20 15:44 49.48742 -2.97945 4766 ft 237 kts 268°
2026-04-20 15:44 49.48305 -3.00340 5190 ft 229 kts 234°
2026-04-20 15:44 49.47225 -3.01869 5400 ft 202 kts 200°
2026-04-20 15:44 49.45931 -3.02270 5334 ft 190 kts 176°
2026-04-20 15:45 49.44646 -3.01894 5332 ft 188 kts 154°
2026-04-20 15:45 49.43550 -3.00850 5287 ft 185 kts 134°
2026-04-20 15:45 49.42789 -2.99323 5168 ft 177 kts 114°
2026-04-20 15:45 49.42436 -2.97535 4999 ft 175 kts 95°
2026-04-20 15:46 49.42449 -2.95672 4783 ft 174 kts 87°
2026-04-20 15:46 49.42508 -2.93822 4542 ft 174 kts 87°
2026-04-20 15:46 49.42566 -2.91966 4311 ft 173 kts 87°
2026-04-20 15:46 49.42622 -2.90140 4077 ft 169 kts 87°
2026-04-20 15:47 49.42677 -2.88352 3851 ft 166 kts 87°
2026-04-20 15:47 49.42730 -2.86572 3618 ft 166 kts 87°
2026-04-20 15:47 49.42784 -2.84794 3396 ft 166 kts 87°
2026-04-20 15:47 49.42835 -2.83082 3183 ft 155 kts 87°
2026-04-20 15:48 49.42883 -2.81480 2964 ft 148 kts 87°
2026-04-20 15:48 49.42928 -2.79943 2747 ft 144 kts 86°
2026-04-20 15:48 49.42973 -2.78409 2551 ft 143 kts 86°
2026-04-20 15:48 49.43019 -2.76878 2353 ft 144 kts 86°
2026-04-20 15:49 49.43063 -2.75348 2160 ft 142 kts 86°
2026-04-20 15:49 49.43107 -2.73840 1968 ft 138 kts 85°
2026-04-20 15:49 49.43146 -2.72477 1782 ft 124 kts 85°
2026-04-20 15:49 49.43183 -2.71181 1613 ft 119 kts 85°
2026-04-20 15:50 49.43219 -2.69928 1452 ft 117 kts 84°
2026-04-20 15:50 49.43255 -2.68680 1290 ft 116 kts 84°
2026-04-20 15:50 49.43288 -2.67461 1122 ft 115 kts 84°
2026-04-20 15:50 49.43323 -2.66231 992 ft 115 kts 81°
2026-04-20 15:51 49.43365 -2.64994 796 ft 117 kts 83°
2026-04-20 15:51 49.43401 -2.63756 632 ft 115 kts 83°
2026-04-20 15:51 49.43435 -2.62513 483 ft 119 kts 85°
2026-04-20 15:51 49.43464 -2.61298 336 ft 113 kts 85°
2026-04-20 15:52 49.43497 -2.60236 317 ft 73 kts 88°
2026-04-20 15:52 49.43492 -2.59882 321 ft 13 kts 130°
2026-04-20 15:52 49.43393 -2.59858 324 ft 16 kts 178°
2026-04-20 15:53 49.43362 -2.59672 327 ft 14 kts 86°
2026-04-20 15:53 49.43366 -2.59507 326 ft 17 kts 86°
2026-04-20 15:53 49.43333 -2.59440 328 ft 3 kts 178°
2026-04-20 15:53 49.43323 -2.59458 327 ft 3 kts 211°
2026-04-20 15:54 49.43312 -2.59457 328 ft 2 kts 179°
2026-04-20 15:54 49.43294 -2.59456 329 ft 0 kts 178°